Location: Foligno
(42.9600°N, 12.7050°E)
Time: 15:36:57
(UTC+02:00)

ISS - Pass Details

Date: 18 July 2018
Orbit: 402 x 408 km, 51.6° (Epoch: 21 July)

Event Time Altitude Azimuth Distance (km) Brightness Sun altitude
Exits shadow 00:50:15 27° 358° (N) 814 -1.7 -25.7°
Drops below altitude 10° 00:52:41 10° 43° (NE) 1,469 -0.5 -25.8°
Sets 00:54:57 0° 55° (NE) 2,333 0.4 -25.8°
